[Iaude] MPEC K35: 2024 KC [a=1.34,e=0.24,i=3.6,H=28.4]

mpec at cfa.harvard.edu mpec at cfa.harvard.edu
Mon May 20 22:27:40 EDT 2024


M.P.E.C. 2024-K35                                  Issued 2024 May 21, 02:26 UT

     The Minor Planet Electronic Circulars contain information on unusual
         minor planets, routine data on comets and natural satellites,
         and occasional editorial announcements.  They are published
    on behalf of Division F of the International Astronomical Union by the
          Minor Planet Center, Smithsonian Astrophysical Observatory,
                          Cambridge, MA 02138, U.S.A.
			  
             Prepared using the Tamkin Foundation Computer Network

                              MPC at CFA.HARVARD.EDU
            URL https://www.minorplanetcenter.net/    ISSN 1523-6714

                                    2024 KC                                     


Observations:
     K24K00C*1C2024 05 19.29558116 09 41.980-18 09 44.24         18.60GVEK035G96
     K24K00C 1C2024 05 19.30083316 09 50.584-18 11 48.80         18.80GVEK035G96
     K24K00C 1C2024 05 19.30607316 09 59.281-18 13 54.19         19.76GVEK035G96
     K24K00C 1C2024 05 19.31132616 10 07.885-18 15 57.85         18.79GVEK035G96
     K24K00C  C2024 05 19.33544516 10 45.570-18 25 40.50         19.4 GVEK035H01
     K24K00C  C2024 05 19.34039616 10 53.865-18 27 37.40         18.8 GVEK035H01
     K24K00C  C2024 05 19.35128816 11 12.163-18 31 54.03         18.8 GVEK035H01
     K24K00C  C2024 05 19.35600816 11 20.124-18 33 45.20         19.4 GVEK035H01
     K24K00C mC2024 05 19.37672116 11 57.510-18 41 45.50         19.53GVEK035I52
     K24K00C mC2024 05 19.37689116 11 57.740-18 41 48.60         20.03GVEK035I52
     K24K00C mC2024 05 19.37706116 11 58.070-18 41 53.20         20.33GVEK035I52
     K24K00C KC2024 05 20.25334616 44 57.458-24 52 54.59         20.24GVEK035I52
     K24K00C KC2024 05 20.25402816 44 58.999-24 53 13.63               VEK035I52
     K24K00C KC2024 05 20.25471516 45 00.547-24 53 32.53         19.32GVEK035I52
     K24K00C KC2024 05 20.25540216 45 02.099-24 53 52.15         18.76GVEK035I52
     K24K00C KC2024 05 20.25608516 45 03.632-24 54 10.98               VEK035I52
     K24K00C KB2024 05 21.05114817 22 34.234-30 40 00.41               ZEK035Y05
     K24K00C KB2024 05 21.05857517 22 55.582-30 43 30.11         19.5 VZEK035Y05

Observer details:
G96 Mt. Lemmon Survey.  Observer V. F. Carvajal.  Measurers T. Beuden, V. F.
    Carvajal, D. Fay, J. B. Fazekas, D. C. Fuls, A. R. Gibbs, A. D. Grauer, H.
    Groeller, J. K. Hogan, R. A. Kowalski, S. M. Larson, G. J. Leonard, D.
    Rankin, R. L. Seaman, F. C. Shelly, K. W. Wierzchos.  1.5-m reflector +
    10K CCD.
H01 Magdalena Ridge Observatory, Socorro.  Observers W. H. Ryan, E. V. Ryan.
    Measurer W. H. Ryan.  2.4-m f/8.9 Ritchey-Chretien + CCD.
I52 Steward Observatory, Mt. Lemmon Station.  Observers J. K. Hogan, V. F.
    Carvajal.  Measurers T. Beuden, V. F. Carvajal, D. Fay, J. B. Fazekas, D.
    C. Fuls, A. R. Gibbs, A. D. Grauer, H. Groeller, J. K. Hogan, R. A.
    Kowalski, S. M. Larson, G. J. Leonard, D. Rankin, R. L. Seaman, F. C.
    Shelly, K. W. Wierzchos.  1.0-m prime focus + CCD.
Y05 SONEAR Wykrota-CEAMIG, Serra da Piedade.  Observers C. Jacques, A.
    Caetano, E. Pimentel.  Measurer C. Jacques.  0.45-m f/2.9 reflector + CMO.

Orbital elements:
2024 KC                                                  Earth MOID = 0.0081 AU
Epoch 2024 Mar. 31.0 TT = JDT 2460400.5                 MPC                     
M 316.41585              (2000.0)            P               Q                  
n   0.63804332     Peri.  199.64938     -0.19362300     +0.97955680             
a   1.3362958      Node    59.22040     -0.89140934     -0.15242004             
e   0.2424861      Incl.    3.64214     -0.40975544     -0.13128825             
P   1.54           H   28.49          G   0.15           U   7                  
Residuals in seconds of arc
240519 G96  1.1+  0.3-    240519 H01  0.0   0.1+    240520 I52  0.0   0.1+
240519 G96  0.0   0.1+    240519 H01  0.1-  0.1+    240520 I52  0.2-  0.1+
240519 G96  0.5+  0.7-    240519 I52  0.4+  0.5-    240520 I52  0.3-  0.6-
240519 G96  0.7-  0.4+    240519 I52  0.4-  0.4+    240520 I52  0.6-  0.7-
240519 H01  0.2+  0.1-    240519 I52  0.2+  0.2-    240521 Y05  0.2+  0.1-
240519 H01  0.2+  0.1-    240520 I52  0.1+  0.4+    240521 Y05  0.0   0.2+

Ephemeris:
2024 KC                  a,e,i = 1.34, 0.24, 4                   q = 1.0123
Date    TT    R. A. (2000) Decl.     Delta      r    Elong.  Phase     V
2024 04 21    13 47 55.3 +13 09 24   0.08683 1.0842   154.9    23.1    24.5
...
2024 05 06    14 04 33.6 +10 49 07   0.04407 1.0473   150.2    28.6    23.1
...
2024 05 14    14 40 39.2 +02 31 42   0.02368 1.0324   156.3    23.1    21.5
...
2024 05 20    16 34 17.5 -22 51 55   0.01201 1.0236   168.8    11.1    19.6
2024 05 21    17 19 11.3 -30 16 27   0.01116 1.0224   157.8    21.9    19.8
2024 05 22    18 16 33.8 -37 08 53   0.01090 1.0212   145.2    34.5    20.2
...
2024 05 28    23 02 57.3 -39 10 56   0.01934 1.0154    95.5    83.4    22.9
...
2024 06 05    00 21 07.0 -30 40 33   0.03809 1.0114    84.1    93.8    24.8
...
2024 06 20    00 54 15.7 -25 31 04   0.07371 1.0158    87.7    88.2    26.0

A. U. Tomatic                (C) Copyright 2024 MPC           M.P.E.C. 2024-K35





More information about the Iaude mailing list